| time (UTC) | temp F | wind direction | speed knots | gust knots | rain 1hr in | rain 24hr in | rain mn in | humidity % | barometer mb |
| 20260906092433 | 87 | 13 | 4.3 | 7.0 | 0.00 | 0.00 | 0.00 | 62 | 1021.2 |
| 20260906091432 | 86 | 351 | 4.3 | 8.7 | 0.00 | 0.00 | 0.00 | 64 | 1021.3 |
| 20260906090436 | 86 | 355 | 3.5 | 7.8 | 0.00 | 0.00 | 0.00 | 65 | 1021.5 |
| 20260906085434 | 86 | 355 | 3.5 | 7.0 | 0.00 | 0.00 | 0.00 | 66 | 1021.4 |
| 20260906084430 | 87 | 317 | 3.5 | 7.8 | 0.00 | 0.00 | 0.00 | 66 | 1021.4 |
| 20260906083429 | 88 | 320 | 2.6 | 4.3 | 0.00 | 0.00 | 0.00 | 65 | 1021.3 |
| 20260906082429 | 88 | 82 | 0.9 | 5.2 | 0.00 | 0.00 | 0.00 | 60 | 1021.3 |
| 20260906081429 | 87 | 5 | 1.7 | 2.6 | 0.00 | 0.00 | 0.00 | 62 | 1021.4 |
| 20260906080427 | 86 | 5 | 0.0 | 2.6 | 0.00 | 0.00 | 0.00 | 65 | 1021.3 |
| 20260906073427 | 85 | 83 | 1.7 | 3.5 | 0.00 | 0.00 | 0.00 | 69 | 1021.2 |
| 20260906072428 | 85 | 40 | 0.9 | 2.6 | 0.00 | 0.00 | 0.00 | 71 | 1021.2 |
| 20260906071428 | 85 | 40 | 1.7 | 3.5 | 0.00 | 0.00 | 0.00 | 71 | 1021.1 |
| 20260906070428 | 84 | 259 | 0.9 | 2.6 | 0.00 | 0.00 | 0.00 | 72 | 1021.0 |
| 20260906065426 | 83 | 238 | 0.9 | 3.5 | 0.00 | 0.00 | 0.00 | 73 | 1021.0 |
| 20260906064425 | 83 | 266 | 1.7 | 3.5 | 0.00 | 0.00 | 0.00 | 73 | 1020.9 |
| 20260906063426 | 82 | 239 | 1.7 | 2.6 | 0.00 | 0.00 | 0.00 | 71 | 1020.9 |
| 20260906061428 | 80 | 242 | 1.7 | 3.5 | 0.00 | 0.00 | 0.00 | 71 | 1020.9 |
| 20260906060425 | 80 | 215 | 0.9 | 2.6 | 0.00 | 0.00 | 0.00 | 71 | 1020.8 |
| 20260906055426 | 79 | 188 | 0.9 | 3.5 | 0.00 | 0.00 | 0.00 | 71 | 1020.8 |
| 20260906054425 | 78 | 203 | 1.7 | 4.3 | 0.00 | 0.00 | 0.00 | 71 | 1020.7 |
| 20260906053426 | 78 | 182 | 2.6 | 5.2 | 0.00 | 0.00 | 0.00 | 71 | 1020.7 |
| 20260906051426 | 76 | 204 | 3.5 | 4.3 | 0.00 | 0.00 | 0.00 | 70 | 1020.6 |
| 20260906050427 | 76 | 207 | 3.5 | 5.2 | 0.00 | 0.00 | 0.00 | 69 | 1020.6 |
| 20260906045424 | 76 | 191 | 3.5 | 5.2 | 0.00 | 0.00 | 0.00 | 70 | 1020.6 |
| 20260906043429 | 75 | 180 | 3.5 | 5.2 | 0.00 | 0.00 | 0.00 | 69 | 1020.4 |
| 20260906042425 | 76 | 193 | 3.5 | 6.1 | 0.00 | 0.00 | 0.00 | 69 | 1020.5 |
| 20260906041432 | 76 | 180 | 2.6 | 5.2 | 0.00 | 0.00 | 0.00 | 68 | 1020.5 |
| 20260906040426 | 76 | 198 | 3.5 | 5.2 | 0.00 | 0.00 | 0.00 | 67 | 1020.3 |
| 20260906035427 | 76 | 221 | 3.5 | 4.3 | 0.00 | 0.00 | 0.00 | 67 | 1020.3 |
| 20260906034423 | 76 | 200 | 2.6 | 4.3 | 0.00 | 0.00 | 0.00 | 66 | 1020.2 |
| 20260906030426 | 76 | 194 | 3.5 | 5.2 | 0.00 | 0.00 | 0.00 | 63 | 1020.1 |
| 20260906025423 | 76 | 171 | 3.5 | 5.2 | 0.00 | 0.00 | 0.00 | 63 | 1020.1 |
| 20260906024423 | 76 | 194 | 3.5 | 5.2 | 0.00 | 0.00 | 0.00 | 62 | 1020.2 |
| 20260906023421 | 76 | 185 | 3.5 | 6.1 | 0.00 | 0.00 | 0.00 | 62 | 1020.3 |
| 20260906022423 | 76 | 188 | 2.6 | 4.3 | 0.00 | 0.00 | 0.00 | 62 | 1020.3 |
| 20260906021422 | 76 | 200 | 2.6 | 5.2 | 0.00 | 0.00 | 0.00 | 62 | 1020.3 |
| 20260906020421 | 76 | 177 | 2.6 | 4.3 | 0.00 | 0.00 | 0.00 | 61 | 1020.3 |
| 20260906014412 | 77 | 229 | 1.7 | 3.5 | 0.00 | 0.00 | 0.00 | 63 | 1020.3 |
| 20260906013415 | 77 | 205 | 1.7 | 3.5 | 0.00 | 0.00 | 0.00 | 63 | 1020.2 |
| 20260906012417 | 77 | 160 | 0.9 | 3.5 | 0.00 | 0.00 | 0.00 | 64 | 1020.2 |
| 20260906011421 | 77 | 189 | 1.7 | 4.3 | 0.00 | 0.00 | 0.00 | 65 | 1020.2 |
| 20260906010415 | 77 | 215 | 2.6 | 5.2 | 0.00 | 0.00 | 0.00 | 66 | 1020.2 |
| 20260906004408 | 77 | 204 | 3.5 | 5.2 | 0.00 | 0.00 | 0.00 | 67 | 1020.2 |
| 20260906003408 | 78 | 200 | 3.5 | 5.2 | 0.00 | 0.00 | 0.00 | 67 | 1020.3 |
| 20260906002408 | 78 | 220 | 4.3 | 6.1 | 0.00 | 0.00 | 0.00 | 67 | 1020.3 |
| 20260906001408 | 78 | 229 | 4.3 | 7.0 | 0.00 | 0.00 | 0.00 | 70 | 1020.3 |
| 20260906000411 | 78 | 220 | 5.2 | 7.0 | 0.00 | 0.00 | 0.00 | 69 | 1020.3 |
| 20260905235409 | 78 | 208 | 5.2 | 7.8 | 0.00 | 0.00 | 0.00 | 68 | 1020.5 |
| 20260905234406 | 78 | 221 | 3.5 | 7.0 | 0.00 | 0.00 | 0.00 | 70 | 1020.7 |
| 20260905232413 | 78 | 214 | 1.7 | 3.5 | 0.00 | 0.00 | 0.00 | 76 | 1020.8 |
| 20260905230406 | 78 | 213 | 1.7 | 5.2 | 0.00 | 0.00 | 0.00 | 75 | 1020.7 |
| 20260905224406 | 79 | 205 | 1.7 | 4.3 | 0.00 | 0.00 | 0.00 | 76 | 1020.6 |
| 20260905223406 | 79 | 216 | 2.6 | 5.2 | 0.00 | 0.00 | 0.00 | 76 | 1020.7 |
| 20260905222406 | 79 | 214 | 2.6 | 5.2 | 0.00 | 0.00 | 0.00 | 75 | 1020.7 |
| 20260905221414 | 79 | 207 | 3.5 | 5.2 | 0.00 | 0.00 | 0.00 | 75 | 1020.8 |
| 20260905220406 | 79 | 209 | 3.5 | 6.1 | 0.00 | 0.00 | 0.00 | 75 | 1020.7 |
| 20260905215359 | 79 | 231 | 2.6 | 5.2 | 0.00 | 0.00 | 0.00 | 76 | 1020.7 |
| 20260905214359 | 79 | 225 | 2.6 | 4.3 | 0.00 | 0.00 | 0.00 | 76 | 1020.7 |
| 20260905213359 | 79 | 212 | 2.6 | 4.3 | 0.00 | 0.00 | 0.00 | 77 | 1020.8 |
| 20260905212358 | 79 | 225 | 2.6 | 3.5 | 0.00 | 0.00 | 0.00 | 78 | 1020.7 |
| 20260905211357 | 79 | 198 | 1.7 | 4.3 | 0.00 | 0.00 | 0.00 | 78 | 1020.7 |
| 20260905210357 | 79 | 198 | 2.6 | 4.3 | 0.00 | 0.00 | 0.00 | 77 | 1020.8 |
| 20260905205357 | 80 | 182 | 1.7 | 4.3 | 0.00 | 0.00 | 0.00 | 76 | 1020.8 |
| 20260905204357 | 80 | 184 | 1.7 | 3.5 | 0.00 | 0.00 | 0.00 | 76 | 1020.8 |
| 20260905203359 | 80 | 179 | 2.6 | 4.3 | 0.00 | 0.00 | 0.00 | 76 | 1020.8 |
| 20260905201351 | 80 | 200 | 2.6 | 4.3 | 0.00 | 0.00 | 0.00 | 75 | 1020.9 |
| 20260905200351 | 80 | 193 | 2.6 | 5.2 | 0.00 | 0.00 | 0.00 | 75 | 1020.8 |
| 20260905195351 | 80 | 202 | 2.6 | 4.3 | 0.00 | 0.00 | 0.00 | 75 | 1020.9 |
| 20260905194351 | 81 | 204 | 2.6 | 4.3 | 0.00 | 0.00 | 0.00 | 74 | 1020.9 |
| 20260905193355 | 81 | 207 | 1.7 | 4.3 | 0.00 | 0.00 | 0.00 | 73 | 1020.9 |
| 20260905192355 | 81 | 194 | 2.6 | 3.5 | 0.00 | 0.00 | 0.00 | 74 | 1020.8 |
| 20260905191351 | 81 | 199 | 2.6 | 4.3 | 0.00 | 0.00 | 0.00 | 73 | 1020.7 |
| 20260905190350 | 82 | 178 | 1.7 | 3.5 | 0.00 | 0.00 | 0.00 | 74 | 1020.6 |
| 20260905185356 | 82 | 204 | 0.9 | 3.5 | 0.00 | 0.00 | 0.00 | 73 | 1020.5 |
| 20260905184351 | 83 | 336 | 0.0 | 1.7 | 0.00 | 0.00 | 0.00 | 73 | 1020.3 |
| 20260905182350 | 83 | 336 | 0.9 | 2.6 | 0.00 | 0.00 | 0.00 | 74 | 1020.2 |
| 20260905181354 | 84 | 336 | 0.0 | 0.0 | 0.00 | 0.00 | 0.00 | 73 | 1020.2 |
| 20260905180350 | 84 | 336 | 0.0 | 0.0 | 0.00 | 0.00 | 0.00 | 73 | 1020.0 |
| 20260905175350 | 84 | 336 | 0.0 | 2.6 | 0.00 | 0.00 | 0.00 | 72 | 1019.9 |
| 20260905174351 | 84 | 336 | 0.9 | 2.6 | 0.00 | 0.00 | 0.00 | 72 | 1019.8 |
| 20260905173350 | 84 | 336 | 1.7 | 2.6 | 0.00 | 0.00 | 0.00 | 72 | 1019.8 |
| 20260905172357 | 85 | 336 | 1.7 | 3.5 | 0.00 | 0.00 | 0.00 | 71 | 1019.8 |
| 20260905171350 | 85 | 336 | 2.6 | 4.3 | 0.00 | 0.00 | 0.00 | 71 | 1019.8 |
| 20260905170351 | 85 | 351 | 2.6 | 4.3 | 0.00 | 0.00 | 0.00 | 69 | 1019.7 |
| 20260905164350 | 86 | 344 | 3.5 | 5.2 | 0.00 | 0.00 | 0.00 | 67 | 1019.6 |
| 20260905163351 | 86 | 345 | 3.5 | 7.0 | 0.00 | 0.00 | 0.00 | 66 | 1019.7 |
| 20260905162357 | 86 | 346 | 4.3 | 7.0 | 0.00 | 0.00 | 0.00 | 66 | 1019.7 |
| 20260905160353 | 87 | 15 | 4.3 | 8.7 | 0.00 | 0.00 | 0.00 | 65 | 1019.9 |
| 20260905155347 | 87 | 355 | 5.2 | 8.7 | 0.00 | 0.00 | 0.00 | 66 | 1019.8 |
| 20260905154346 | 87 | 355 | 5.2 | 9.6 | 0.00 | 0.00 | 0.00 | 66 | 1019.9 |
| 20260905153344 | 87 | 16 | 4.3 | 9.6 | 0.00 | 0.00 | 0.00 | 66 | 1019.9 |
| 20260905152344 | 88 | 355 | 4.3 | 9.6 | 0.00 | 0.00 | 0.00 | 66 | 1019.8 |
| 20260905151344 | 88 | 55 | 3.5 | 9.6 | 0.00 | 0.00 | 0.00 | 65 | 1019.8 |
| 20260905150346 | 88 | 58 | 4.3 | 8.7 | 0.00 | 0.00 | 0.00 | 65 | 1019.7 |
| 20260905145344 | 89 | 5 | 5.2 | 8.7 | 0.00 | 0.00 | 0.00 | 61 | 1019.7 |
| 20260905144344 | 89 | 344 | 5.2 | 8.7 | 0.00 | 0.00 | 0.00 | 63 | 1019.7 |
| 20260905143346 | 89 | 348 | 4.3 | 8.7 | 0.00 | 0.00 | 0.00 | 61 | 1019.8 |
| 20260905142344 | 90 | 30 | 3.5 | 7.8 | 0.00 | 0.00 | 0.00 | 59 | 1019.8 |
| 20260905140346 | 91 | 311 | 3.5 | 7.8 | 0.00 | 0.00 | 0.00 | 46 | 1019.9 |
| 20260905135343 | 91 | 302 | 2.6 | 7.0 | 0.00 | 0.00 | 0.00 | 45 | 1019.9 |
| 20260905134346 | 90 | 355 | 2.6 | 7.0 | 0.00 | 0.00 | 0.00 | 46 | 1019.9 |
| 20260905133345 | 89 | 311 | 3.5 | 7.8 | 0.00 | 0.00 | 0.00 | 56 | 1020.0 |
| 20260905132346 | 89 | 321 | 4.3 | 7.8 | 0.00 | 0.00 | 0.00 | 58 | 1020.1 |
| 20260905130340 | 89 | 321 | 3.5 | 7.8 | 0.00 | 0.00 | 0.00 | 63 | 1020.3 |
| 20260905125343 | 89 | 317 | 4.3 | 8.7 | 0.00 | 0.00 | 0.00 | 60 | 1020.3 |
| 20260905124348 | 89 | 343 | 3.5 | 7.8 | 0.00 | 0.00 | 0.00 | 57 | 1020.3 |
| 20260905122345 | 88 | 329 | 5.2 | 9.6 | 0.00 | 0.00 | 0.00 | 61 | 1020.4 |
| 20260905121340 | 88 | 26 | 3.5 | 8.7 | 0.00 | 0.00 | 0.00 | 63 | 1020.5 |
| 20260905120333 | 88 | 355 | 4.3 | 8.7 | 0.00 | 0.00 | 0.00 | 61 | 1020.6 |
| 20260905113337 | 88 | 34 | 3.5 | 7.8 | 0.00 | 0.00 | 0.00 | 63 | 1020.7 |
| 20260905112332 | 87 | 0 | 5.2 | 9.6 | 0.00 | 0.00 | 0.00 | 63 | 1020.7 |
| 20260905111331 | 88 | 347 | 5.2 | 9.6 | 0.00 | 0.00 | 0.00 | 64 | 1020.7 |
| 20260905110334 | 88 | 355 | 4.3 | 8.7 | 0.00 | 0.00 | 0.00 | 66 | 1020.7 |
| 20260905105332 | 88 | 348 | 5.2 | 9.6 | 0.00 | 0.00 | 0.00 | 63 | 1020.7 |
| 20260905104331 | 88 | 0 | 4.3 | 7.0 | 0.00 | 0.00 | 0.00 | 62 | 1020.6 |
| 20260905103332 | 87 | 14 | 4.3 | 8.7 | 0.00 | 0.00 | 0.00 | 63 | 1020.6 |
| 20260905102332 | 88 | 21 | 5.2 | 10.4 | 0.00 | 0.00 | 0.00 | 64 | 1020.7 |
| 20260905101330 | 88 | 355 | 5.2 | 10.4 | 0.00 | 0.00 | 0.00 | 61 | 1020.7 |
| 20260905100331 | 88 | 328 | 5.2 | 9.6 | 0.00 | 0.00 | 0.00 | 58 | 1020.6 |
| 20260905095336 | 88 | 316 | 5.2 | 8.7 | 0.00 | 0.00 | 0.00 | 54 | 1020.6 |
| 20260905094329 | 88 | 344 | 5.2 | 10.4 | 0.00 | 0.00 | 0.00 | 58 | 1020.6 |
| 20260905093323 | 88 | 317 | 4.3 | 9.6 | 0.00 | 0.00 | 0.00 | 57 | 1020.7 |